Time,TemperatureF,DewpointF,PressureIn,WindDirection,WindDirectionDegrees,WindSpeedMPH,WindSpeedGustMPH,Humidity,HourlyPrecipIn,Conditions,Clouds,dailyrainin,SoftwareType,DateUTC
2013-01-15 00:00:00,44.4,18.5,29.79,North,2,8.7,8.7,35,0.00,,FEW,0.00,VWS V14.00,2013-01-15 08:00:00,
2013-01-15 00:01:00,44.4,18.5,29.80,North,2,8.7,8.7,35,0.00,,FEW,0.00,VWS V14.00,2013-01-15 08:01:00,
2013-01-15 00:02:00,44.4,18.5,29.80,North,2,8.7,8.7,35,0.00,,FEW,0.00,VWS V14.00,2013-01-15 08:02:00,
2013-01-15 00:03:00,44.2,18.3,29.80,North,2,8.7,8.7,35,0.00,,FEW,0.00,VWS V14.00,2013-01-15 08:03:00,
2013-01-15 00:04:00,44.2,18.3,29.80,North,2,8.7,8.7,35,0.00,,FEW,0.00,VWS V14.00,2013-01-15 08:04:00,
2013-01-15 00:05:00,44.2,18.3,29.82,North,2,8.7,8.7,35,0.00,,FEW,0.00,VWS V14.00,2013-01-15 08:05:00,
2013-01-15 00:06:00,44.2,18.3,29.82,North,2,8.7,8.7,35,0.00,,FEW,0.00,VWS V14.00,2013-01-15 08:06:00,
2013-01-15 00:07:00,44.2,18.3,29.82,North,2,8.7,8.7,35,0.00,,FEW,0.00,VWS V14.00,2013-01-15 08:07:00,
2013-01-15 00:08:00,44.2,18.3,29.82,North,2,8.7,8.7,35,0.00,,FEW,0.00,VWS V14.00,2013-01-15 08:08:00,
2013-01-15 00:09:00,44.2,18.3,29.82,North,2,8.7,8.7,35,0.00,,FEW,0.00,VWS V14.00,2013-01-15 08:09:00,
2013-01-15 00:10:00,44.2,18.3,29.82,North,2,8.7,8.7,35,0.00,,FEW,0.00,VWS V14.00,2013-01-15 08:10:00,
2013-01-15 00:11:00,44.2,18.3,29.82,North,2,8.7,8.7,35,0.00,,FEW,0.00,VWS V14.00,2013-01-15 08:11:00,
2013-01-15 00:12:00,44.1,18.2,29.82,North,2,8.7,8.7,35,0.00,,FEW,0.00,VWS V14.00,2013-01-15 08:12:00,
2013-01-15 00:13:00,44.1,18.2,29.82,North,2,8.7,8.7,35,0.00,,FEW,0.00,VWS V14.00,2013-01-15 08:13:00,
2013-01-15 00:14:00,43.9,18.0,29.82,North,2,8.7,8.7,35,0.00,,FEW,0.00,VWS V14.00,2013-01-15 08:14:00,
2013-01-15 00:15:00,43.5,17.7,29.82,North,2,8.7,8.7,35,0.00,,FEW,0.00,VWS V14.00,2013-01-15 08:15:00,
2013-01-15 00:16:00,43.7,17.9,29.82,North,2,8.7,8.7,35,0.00,,FEW,0.00,VWS V14.00,2013-01-15 08:16:00,
2013-01-15 00:17:00,43.5,17.7,29.82,North,2,8.7,8.7,35,0.00,,FEW,0.00,VWS V14.00,2013-01-15 08:17:00,
2013-01-15 00:18:00,43.5,17.7,29.82,North,2,8.7,8.7,35,0.00,,FEW,0.00,VWS V14.00,2013-01-15 08:18:00,
2013-01-15 00:19:00,43.3,17.5,29.82,North,2,8.7,8.7,35,0.00,,FEW,0.00,VWS V14.00,2013-01-15 08:19:00,
2013-01-15 00:20:00,43.3,17.5,29.79,North,2,8.7,8.7,35,0.00,,FEW,0.00,VWS V14.00,2013-01-15 08:20:00,
2013-01-15 00:21:00,43.3,17.5,29.80,North,2,8.7,8.7,35,0.00,,FEW,0.00,VWS V14.00,2013-01-15 08:21:00,
2013-01-15 00:22:00,43.3,17.5,29.80,North,2,8.7,8.7,35,0.00,,FEW,0.00,VWS V14.00,2013-01-15 08:22:00,
2013-01-15 00:23:00,43.3,17.5,29.80,North,2,8.7,8.7,35,0.00,,FEW,0.00,VWS V14.00,2013-01-15 08:23:00,
2013-01-15 00:24:00,43.3,17.5,29.80,North,2,8.7,8.7,35,0.00,,FEW,0.00,VWS V14.00,2013-01-15 08:24:00,
2013-01-15 00:25:00,43.3,17.5,29.79,North,2,8.7,8.7,35,0.00,,FEW,0.00,VWS V14.00,2013-01-15 08:25:00,
2013-01-15 00:26:00,43.3,17.5,29.80,North,2,8.7,8.7,35,0.00,,FEW,0.00,VWS V14.00,2013-01-15 08:26:00,
2013-01-15 00:27:00,43.3,17.5,29.80,North,2,8.7,8.7,35,0.00,,FEW,0.00,VWS V14.00,2013-01-15 08:27:00,
2013-01-15 00:28:00,43.3,17.5,29.80,North,2,8.7,8.7,35,0.00,,FEW,0.00,VWS V14.00,2013-01-15 08:28:00,
2013-01-15 00:29:00,43.3,17.5,29.80,North,2,8.7,8.7,35,0.00,,FEW,0.00,VWS V14.00,2013-01-15 08:29:00,
2013-01-15 00:30:00,43.3,17.5,29.79,NE,48,4.0,4.0,35,0.00,,FEW,0.00,VWS V14.00,2013-01-15 08:30:00,
2013-01-15 00:31:00,43.3,17.5,29.79,NE,48,4.0,4.0,35,0.00,,FEW,0.00,VWS V14.00,2013-01-15 08:31:00,
2013-01-15 00:32:00,43.2,17.4,29.79,NE,48,4.0,4.0,35,0.00,,FEW,0.00,VWS V14.00,2013-01-15 08:32:00,
2013-01-15 00:33:00,43.2,17.4,29.79,NE,48,4.0,4.0,35,0.00,,FEW,0.00,VWS V14.00,2013-01-15 08:33:00,
2013-01-15 00:35:00,43.2,17.4,29.79,NE,48,4.0,4.0,35,0.00,,FEW,0.00,VWS V14.00,2013-01-15 08:35:00,
2013-01-15 00:36:00,43.2,17.4,29.79,NE,48,4.0,4.0,35,0.00,,FEW,0.00,VWS V14.00,2013-01-15 08:36:00,
2013-01-15 00:37:00,43.2,17.4,29.79,NE,48,4.0,4.0,35,0.00,,FEW,0.00,VWS V14.00,2013-01-15 08:37:00,
2013-01-15 00:38:00,43.2,17.4,29.79,NE,48,4.0,4.0,35,0.00,,FEW,0.00,VWS V14.00,2013-01-15 08:38:00,
2013-01-15 00:39:00,43.2,17.4,29.79,NE,48,4.0,4.0,35,0.00,,FEW,0.00,VWS V14.00,2013-01-15 08:39:00,
2013-01-15 00:40:00,43.2,17.4,29.79,NE,48,4.0,4.0,35,0.00,,FEW,0.00,VWS V14.00,2013-01-15 08:40:00,
2013-01-15 00:41:00,43.2,17.4,29.79,NE,48,4.0,4.0,35,0.00,,FEW,0.00,VWS V14.00,2013-01-15 08:41:00,
2013-01-15 00:42:00,43.2,17.4,29.79,NE,48,4.0,4.0,35,0.00,,FEW,0.00,VWS V14.00,2013-01-15 08:42:00,
2013-01-15 00:43:00,43.2,17.4,29.79,NE,48,4.0,4.0,35,0.00,,FEW,0.00,VWS V14.00,2013-01-15 08:43:00,
2013-01-15 00:44:00,43.3,17.5,29.79,NE,48,4.0,4.0,35,0.00,,FEW,0.00,VWS V14.00,2013-01-15 08:44:00,
2013-01-15 00:45:00,43.3,17.5,29.79,NE,48,4.0,4.0,35,0.00,,FEW,0.00,VWS V14.00,2013-01-15 08:45:00,
2013-01-15 00:46:00,43.3,17.5,29.79,NE,48,4.0,4.0,35,0.00,,FEW,0.00,VWS V14.00,2013-01-15 08:46:00,
2013-01-15 00:47:00,43.2,17.4,29.79,NE,48,4.0,4.0,35,0.00,,FEW,0.00,VWS V14.00,2013-01-15 08:47:00,
2013-01-15 00:48:00,43.2,17.4,29.79,NE,48,4.0,4.0,35,0.00,,FEW,0.00,VWS V14.00,2013-01-15 08:48:00,
2013-01-15 00:49:00,43.2,17.4,29.79,NE,48,4.0,4.0,35,0.00,,FEW,0.00,VWS V14.00,2013-01-15 08:49:00,
2013-01-15 00:50:00,43.0,17.2,29.79,NE,48,4.0,4.0,35,0.00,,FEW,0.00,VWS V14.00,2013-01-15 08:50:00,
2013-01-15 00:51:00,43.0,17.2,29.79,NE,48,4.0,4.0,35,0.00,,FEW,0.00,VWS V14.00,2013-01-15 08:51:00,
2013-01-15 00:52:00,43.0,17.2,29.79,NE,48,4.0,4.0,35,0.00,,FEW,0.00,VWS V14.00,2013-01-15 08:52:00,
2013-01-15 00:53:00,43.0,17.2,29.79,NE,48,4.0,4.0,35,0.00,,FEW,0.00,VWS V14.00,2013-01-15 08:53:00,
2013-01-15 00:54:00,43.0,17.2,29.79,NE,48,4.0,4.0,35,0.00,,FEW,0.00,VWS V14.00,2013-01-15 08:54:00,
2013-01-15 00:55:00,43.0,17.2,29.79,NE,48,4.0,4.0,35,0.00,,FEW,0.00,VWS V14.00,2013-01-15 08:55:00,
2013-01-15 00:56:00,43.0,17.2,29.79,NE,48,4.0,4.0,35,0.00,,FEW,0.00,VWS V14.00,2013-01-15 08:56:00,